Preston, MN

4:00 AM CST on February 21, 2017 (GMT -0600)
Preston

Weather History for KFKA - April, 2014

Change the Weather History Date:

Thursday, April 3, 2014

  Actual Average (KRST) Record (KRST)
Temperature  
Mean Temperature 34 °F -  
Max Temperature 37 °F 46 °F 74 °F (1910)
Min Temperature 32 °F 29 °F 6 °F (1954)
Degree Days  
Heating Degree Days 30    
Moisture  
Dew Point 30 °F    
Average Humidity 83    
Maximum Humidity 99    
Minimum Humidity 68    
Precipitation  
Precipitation 0.22 in - - ()
Sea Level Pressure  
Sea Level Pressure 29.83 in    
Wind  
Wind Speed 14 mph (ENE)    
Max Wind Speed 21 mph    
Max Gust Speed 29 mph    
Visibility 8 miles    
Events Rain , Snow    
Averages and records for this station are not official NWS values.
T = Trace of Precipitation, MM = Missing Value Source: NWS Daily Summary

Daily Weather History Graph

Daily Weather History Graph

Search for Another Location

Airport or City:

Trip Planner

Search our weather history database for the weather conditions in past years. The results will help you decide how hot, cold, wet, or windy it might be!

Date:

Astronomy

Apr. 03, 2014 Rise Set
Actual Time 6:46 AM CDT 7:37 PM CDT
Civil Twilight 6:17 AM CDT 8:07 PM CDT
Nautical Twilight 5:43 AM CDT 8:41 PM CDT
Astronomical Twilight 5:07 AM CDT 9:18 PM CDT
Moon 9:09 AM CDT (4/3) No Moon Set
Length of Visible Light 13h 49m
Length of Day
12h 51m
Waxing Crescent, 17% of the Moon is Illuminated
Apr 3
Waxing Crescent
Apr 7
First Quarter
Apr 15
Full
Apr 22
Last Quarter
Apr 29
New

Hourly Weather History & Observations

Time (CDT) Temp. Windchill Dew Point Humidity Pressure Visibility Wind Dir Wind Speed Gust Speed Precip Events Conditions
12:11 AM 37.9 °F 29.6 °F 30.2 °F 74% 30.00 in 10.0 mi East 13.8 mph 24.2 mph 0.01 in Rain Light Rain
12:31 AM 37.4 °F 28.2 °F 30.9 °F 77% 29.99 in 10.0 mi ENE 16.1 mph 21.9 mph 0.01 in Rain Light Rain
12:51 AM 36.9 °F 27.8 °F 31.1 °F 80% 30.00 in 10.0 mi East 15.0 mph - 0.01 in   Overcast
1:11 AM 36.5 °F 28.2 °F 31.1 °F 81% 30.01 in 10.0 mi East 12.7 mph - N/A   Overcast
1:31 AM 35.8 °F 28.8 °F 31.5 °F 84% 30.02 in 10.0 mi ENE 9.2 mph - N/A Rain Light Rain
1:51 AM 35.1 °F 26.4 °F 31.6 °F 87% 30.01 in 7.0 mi ENE 12.7 mph - N/A Rain Light Rain
2:11 AM 34.7 °F 25.9 °F 31.6 °F 89% 29.98 in 10.0 mi ENE 12.7 mph 16.1 mph N/A   Overcast
2:31 AM 34.7 °F 25.5 °F 31.1 °F 87% 29.96 in 10.0 mi ENE 13.8 mph 21.9 mph N/A   Overcast
2:51 AM 34.3 °F 24.6 °F 30.9 °F 87% 29.96 in 10.0 mi ENE 15.0 mph 21.9 mph N/A   Overcast
3:11 AM 34.2 °F 24.4 °F 30.4 °F 86% 29.93 in 10.0 mi ENE 15.0 mph 20.7 mph N/A   Overcast
3:32 AM 33.8 °F 22.8 °F 30.0 °F 86% 29.92 in 10.0 mi ENE 18.4 mph 25.3 mph N/A   Overcast
3:51 AM 33.6 °F 21.9 °F 29.7 °F 85% 29.92 in 10.0 mi East 20.7 mph 27.6 mph N/A   Overcast
4:11 AM 33.6 °F 22.2 °F 28.8 °F 82% 29.92 in 10.0 mi ENE 19.6 mph 24.2 mph N/A   Overcast
4:31 AM 33.8 °F 23.5 °F 28.0 °F 79% 29.92 in 10.0 mi East 16.1 mph 24.2 mph N/A   Overcast
4:51 AM 33.8 °F 23.2 °F 27.5 °F 78% 29.91 in 10.0 mi ENE 17.3 mph 25.3 mph N/A   Overcast
5:11 AM 33.8 °F 22.5 °F 27.0 °F 76% 29.91 in 10.0 mi ENE 19.6 mph 26.5 mph N/A   Overcast
5:32 AM 33.8 °F 22.2 °F 26.4 °F 74% 29.91 in 10.0 mi ENE 20.7 mph 25.3 mph N/A   Overcast
5:51 AM 33.8 °F 22.5 °F 26.4 °F 74% 29.91 in 10.0 mi ENE 19.6 mph 26.5 mph N/A   Overcast
6:11 AM 33.8 °F 23.2 °F 26.6 °F 75% 29.91 in 10.0 mi East 17.3 mph 23.0 mph N/A   Overcast
6:31 AM 33.8 °F 22.5 °F 26.6 °F 75% 29.90 in 10.0 mi East 19.6 mph 24.2 mph N/A   Overcast
6:51 AM 33.8 °F 22.5 °F 26.4 °F 74% 29.89 in 10.0 mi ENE 19.6 mph 27.6 mph N/A   Overcast
7:11 AM 33.8 °F 22.2 °F 26.4 °F 74% 29.88 in 10.0 mi ENE 20.7 mph 28.8 mph N/A   Overcast
7:31 AM 33.8 °F 23.2 °F 26.4 °F 74% 29.87 in 10.0 mi ENE 17.3 mph 26.5 mph N/A   Overcast
7:51 AM 33.8 °F 23.2 °F 25.9 °F 73% 29.87 in 10.0 mi East 17.3 mph 25.3 mph N/A   Overcast
8:11 AM 33.8 °F 23.2 °F 26.2 °F 74% 29.87 in 10.0 mi East 17.3 mph 26.5 mph N/A   Overcast
8:31 AM 33.8 °F 23.2 °F 25.9 °F 73% 29.87 in 10.0 mi East 17.3 mph 23.0 mph N/A   Overcast
8:51 AM 33.8 °F 23.5 °F 25.7 °F 72% 29.87 in 10.0 mi East 16.1 mph 24.2 mph N/A   Overcast
9:11 AM 33.8 °F 23.9 °F 25.7 °F 72% 29.85 in 10.0 mi East 15.0 mph 23.0 mph N/A   Overcast
9:32 AM 34.2 °F 25.2 °F 25.9 °F 72% 29.84 in 10.0 mi East 12.7 mph 21.9 mph N/A   Overcast
9:51 AM 34.7 °F 24.3 °F 25.9 °F 70% 29.83 in 10.0 mi East 17.3 mph - N/A   Overcast
10:11 AM 34.9 °F 27.1 °F 25.7 °F 69% 29.84 in 10.0 mi East 10.4 mph 18.4 mph N/A   Overcast
10:31 AM 35.2 °F 27.6 °F 25.7 °F 68% 29.84 in 10.0 mi East 10.4 mph 17.3 mph N/A   Overcast
10:51 AM 35.8 °F 28.3 °F 26.2 °F 68% 29.84 in 10.0 mi East 10.4 mph 20.7 mph N/A   Overcast
11:11 AM 36.0 °F 27.1 °F 26.6 °F 69% 29.84 in 10.0 mi East 13.8 mph 20.7 mph N/A   Overcast
11:31 AM 36.0 °F 26.3 °F 26.8 °F 69% 29.85 in 10.0 mi East 16.1 mph 20.7 mph N/A   Overcast
11:51 AM 35.6 °F 27.1 °F 27.3 °F 72% 29.86 in 10.0 mi East 12.7 mph 18.4 mph N/A   Overcast
12:11 PM 34.7 °F 24.7 °F 29.1 °F 80% 29.84 in 4.0 mi East 16.1 mph 23.0 mph N/A   Haze
12:31 PM 33.8 °F 25.3 °F 30.4 °F 87% 29.83 in 2.0 mi ENE 11.5 mph 18.4 mph N/A   Overcast
12:51 PM 34.2 °F 25.7 °F 30.4 °F 86% 29.82 in 7.0 mi East 11.5 mph 18.4 mph N/A   Overcast
1:12 PM 35.4 °F 26.8 °F 29.8 °F 80% 29.82 in 10.0 mi East 12.7 mph 19.6 mph N/A   Overcast
1:31 PM 35.8 °F 26.9 °F 29.8 °F 79% 29.82 in 10.0 mi East 13.8 mph 19.6 mph N/A   Overcast
1:51 PM 35.6 °F 27.5 °F 30.9 °F 83% 29.81 in 3.0 mi ESE 11.5 mph 20.7 mph N/A   Haze
2:12 PM 35.1 °F 26.4 °F 32.0 °F 89% 29.80 in 3.0 mi East 12.7 mph 18.4 mph N/A   Overcast
2:31 PM 35.1 °F 26.9 °F 31.8 °F 88% 29.79 in 5.0 mi East 11.5 mph - N/A   Overcast
2:51 PM 35.2 °F 27.1 °F 31.8 °F 87% 29.78 in 7.0 mi East 11.5 mph - N/A   Overcast
3:12 PM 34.7 °F 25.9 °F 32.0 °F 90% 29.77 in 2.5 mi East 12.7 mph 16.1 mph N/A   Overcast
3:31 PM 34.7 °F 26.4 °F 32.2 °F 91% 29.77 in 2.0 mi ENE 11.5 mph - N/A   Overcast
3:51 PM 34.7 °F 28.1 °F 32.5 °F 92% 29.77 in 4.0 mi ENE 8.1 mph - N/A   Overcast
4:11 PM 34.7 °F 28.8 °F 32.5 °F 92% 29.76 in 7.0 mi NE 6.9 mph - N/A   Overcast
4:31 PM 34.7 °F 28.1 °F 32.4 °F 91% 29.76 in 7.0 mi NE 8.1 mph - N/A   Overcast
4:51 PM 35.1 °F 29.3 °F 32.5 °F 91% 29.75 in 10.0 mi NE 6.9 mph - N/A   Overcast
5:11 PM 35.6 °F 29.9 °F 32.4 °F 88% 29.74 in 10.0 mi NE 6.9 mph - N/A   Overcast
5:31 PM 36.5 °F 31.0 °F 31.6 °F 83% 29.73 in 10.0 mi ENE 6.9 mph - N/A   Overcast
5:51 PM 36.5 °F 31.8 °F 31.3 °F 81% 29.74 in 10.0 mi NE 5.8 mph - N/A   Overcast
6:11 PM 36.1 °F 29.9 °F 31.3 °F 83% 29.74 in 4.0 mi NE 8.1 mph - 0.01 in Rain Rain
6:31 PM 35.6 °F 29.2 °F 31.8 °F 86% 29.73 in 5.0 mi NNE 8.1 mph - 0.02 in Rain Light Rain
6:51 PM 34.9 °F 29.9 °F 32.0 °F 89% 29.75 in 5.0 mi NE 5.8 mph - 0.03 in Rain Rain
7:11 PM 34.3 °F 26.5 °F 32.0 °F 91% 29.73 in 1.8 mi NE 10.4 mph - 0.03 in Rain Light Rain
7:31 PM 33.8 °F 25.3 °F 32.0 °F 93% 29.71 in 3.0 mi NE 11.5 mph - 0.05 in Rain Rain
7:51 PM 33.6 °F 26.2 °F 32.0 °F 94% 29.72 in 4.0 mi NE 9.2 mph - 0.08 in Rain Light Rain
8:11 PM 33.1 °F 25.5 °F 31.8 °F 95% 29.71 in 7.0 mi NE 9.2 mph - N/A   Overcast
8:31 PM 32.9 °F 25.3 °F 32.0 °F 96% 29.71 in 7.0 mi NNE 9.2 mph - 0.01 in   Overcast
8:51 PM 32.7 °F 25.0 °F 31.8 °F 96% 29.69 in 5.0 mi NNE 9.2 mph - 0.01 in   Overcast
9:11 PM 32.4 °F 25.3 °F 31.8 °F 98% 29.68 in 5.0 mi NNE 8.1 mph - N/A   Overcast
9:31 PM 32.9 °F 26.7 °F 32.0 °F 96% 29.68 in 5.0 mi NE 6.9 mph - N/A   Overcast
10:51 PM 32.9 °F 28.5 °F 32.0 °F 96% 29.70 in 1.5 mi North 4.6 mph - 0.09 in Snow Light Snow
11:11 PM 32.7 °F 28.3 °F 32.0 °F 97% 29.70 in 4.0 mi North 4.6 mph - N/A   Overcast
11:31 PM 32.4 °F 27.9 °F 32.0 °F 99% 29.68 in 3.0 mi NNE 4.6 mph - N/A   Overcast
11:48 PM 32.5 °F 28.1 °F 32.0 °F 98% 29.68 in 2.0 mi NNE 4.6 mph - N/A   Overcast